DW2070 Weather Reports


Display with metric or nautical units.
time (UTC)temp
F
wind
direction
speed
MPH
gust
MPH
rain 1hr
in
rain 24hr
in
rain mn
in
humidity
%
barometer
mb
20260904131003 59 68 2.0 5.0 0.00 0.00 0.00 85 1012.8
20260904130004 59 69 2.0 5.0 0.00 0.00 0.00 85 1012.8
20260904125003 59 71 3.0 5.0 0.00 0.00 0.00 85 1012.7
20260904124004 59 73 2.0 5.0 0.00 0.00 0.00 85 1012.8
20260904123003 59 78 2.0 5.0 0.00 0.00 0.00 86 1012.7
20260904122003 59 68 3.0 5.0 0.00 0.00 0.00 85 1012.5
20260904121004 59 66 3.0 7.0 0.00 0.00 0.00 85 1012.6
20260904120024 59 66 3.0 5.0 0.00 0.00 0.00 85 1012.6
20260904115003 60 62 3.0 5.0 0.00 0.00 0.00 86 1012.5
20260904114003 60 68 2.0 6.0 0.00 0.00 0.00 86 1012.5
20260904113003 60 70 3.0 6.0 0.00 0.00 0.00 86 1012.5
20260904112003 60 75 2.0 5.0 0.00 0.00 0.00 86 1012.5
20260904111003 60 85 2.0 5.0 0.00 0.00 0.00 86 1012.5
20260904110003 60 90 1.0 4.0 0.00 0.00 0.00 86 1012.5
20260904105003 60 109 1.0 4.0 0.00 0.00 0.00 86 1012.5
20260904104003 60 114 1.0 3.0 0.00 0.00 0.00 86 1012.4
20260904103003 60 114 1.0 3.0 0.00 0.00 0.00 85 1012.5
20260904102003 61 120 1.0 5.0 0.00 0.00 0.00 85 1012.5
20260904101004 61 0 0.0 1.0 0.00 0.00 0.00 85 1012.4
20260904100003 61 187 1.0 4.0 0.00 0.00 0.00 85 1012.4
20260904095024 61 187 0.0 4.0 0.00 0.00 0.00 85 1012.3
20260904094003 61 0 0.0 0.0 0.00 0.00 0.00 85 1012.4
20260904093004 62 0 0.0 0.0 0.00 0.00 0.00 84 1012.4
20260904092003 62 0 1.0 1.0 0.00 0.00 0.00 85 1012.4
20260904090004 62 0 0.0 0.0 0.00 0.00 0.00 85 1012.4
20260904085003 62 0 0.0 0.0 0.00 0.00 0.00 84 1012.5
20260904084003 63 0 0.0 0.0 0.00 0.00 0.00 84 1012.5
20260904083003 63 0 0.0 0.0 0.00 0.00 0.00 84 1012.7
20260904082003 63 0 0.0 3.0 0.00 0.00 0.00 84 1012.7
20260904081003 63 0 0.0 0.0 0.00 0.00 0.00 84 1012.9
20260904080024 63 0 0.0 0.0 0.00 0.00 0.00 83 1012.9
20260904075003 64 0 0.0 0.0 0.00 0.00 0.00 83 1012.9
20260904074024 64 0 0.0 0.0 0.00 0.00 0.00 83 1012.8
20260904073003 64 0 0.0 0.0 0.00 0.00 0.00 82 1012.7
20260904072004 65 0 0.0 0.0 0.00 0.00 0.00 82 1012.8
20260904071004 65 0 0.0 0.0 0.00 0.00 0.00 82 1012.7
20260904070005 65 0 0.0 0.0 0.00 0.00 0.00 83 1012.7
20260904065005 65 204 0.0 2.0 0.00 0.00 0.00 83 1012.8
20260904064005 66 204 1.0 3.0 0.00 0.00 0.00 83 1012.5
20260904063005 66 205 1.0 4.0 0.00 0.00 0.00 83 1012.5
20260904062004 67 0 0.0 0.0 0.00 0.00 0.00 83 1012.4
20260904061005 67 0 0.0 0.0 0.00 0.00 0.00 83 1012.5
20260904060025 67 0 0.0 0.0 0.00 0.00 0.00 83 1012.5
20260904055004 67 0 0.0 0.0 0.00 0.00 0.00 83 1012.6
20260904054005 67 0 0.0 0.0 0.00 0.00 0.00 83 1012.5
20260904053005 67 211 0.0 1.0 0.00 0.00 0.00 83 1012.6
20260904052004 67 211 1.0 3.0 0.00 0.00 0.00 83 1012.7
20260904051004 67 211 1.0 4.0 0.00 0.00 0.00 83 1012.7
20260904045005 67 0 0.0 3.0 0.00 0.00 0.00 83 1012.8
20260904044005 67 212 1.0 1.0 0.00 0.00 0.00 83 1012.9
20260904043004 67 213 0.0 4.0 0.00 0.00 0.00 82 1012.7
20260904042004 68 214 1.0 2.0 0.00 0.00 0.00 82 1012.7
20260904041005 68 214 1.0 3.0 0.00 0.00 0.00 82 1012.6
20260904040004 68 233 2.0 5.0 0.00 0.00 0.00 81 1012.6
20260904035004 68 230 1.0 4.0 0.00 0.00 0.00 80 1012.5
20260904034025 69 235 2.0 4.0 0.00 0.00 0.00 79 1012.5
20260904033004 69 239 3.0 5.0 0.00 0.00 0.00 78 1012.5
20260904032004 69 239 3.0 7.0 0.00 0.00 0.00 77 1012.4
20260904031004 70 239 2.0 5.0 0.00 0.00 0.00 75 1012.2
20260904030004 70 242 3.0 4.0 0.00 0.00 0.00 73 1012.1
20260904025004 70 246 3.0 7.0 0.00 0.00 0.00 71 1012.1
20260904024004 71 255 3.0 8.0 0.00 0.00 0.00 69 1012.1
20260904023004 71 246 3.0 6.0 0.00 0.00 0.00 68 1012.0
20260904022025 71 254 3.0 7.0 0.00 0.00 0.00 66 1012.0
20260904021004 72 252 4.0 8.0 0.00 0.00 0.00 65 1012.0
20260904015004 73 263 4.0 9.0 0.00 0.00 0.00 62 1012.0
20260904014004 74 270 3.0 9.0 0.00 0.00 0.00 62 1011.9
20260904013004 75 277 3.0 10.0 0.00 0.00 0.00 60 1012.0
20260904012004 76 297 3.0 8.0 0.00 0.00 0.00 59 1012.1
20260904011004 77 262 3.0 10.0 0.00 0.00 0.00 58 1012.1
20260904010004 78 285 4.0 10.0 0.00 0.00 0.00 58 1012.2
20260904005004 78 254 5.0 10.0 0.00 0.00 0.00 56 1012.2
20260904004004 78 251 5.0 14.0 0.00 0.00 0.00 56 1012.2
20260904003004 79 266 5.0 12.0 0.00 0.00 0.00 55 1012.2
20260904001004 79 283 5.0 9.0 0.00 0.00 0.00 55 1012.3
20260904000025 79 254 6.0 12.0 0.00 0.00 0.00 54 1012.4
20260903235025 80 250 5.0 12.0 0.00 0.00 0.00 54 1012.5
20260903234025 80 241 5.0 12.0 0.00 0.00 0.00 55 1012.5
20260903233004 80 307 5.0 12.0 0.00 0.00 0.00 55 1012.5
20260903232004 79 249 6.0 14.0 0.00 0.00 0.00 55 1012.6
20260903230004 80 243 6.0 11.0 0.00 0.00 0.00 56 1012.8
20260903225004 79 238 6.0 15.0 0.00 0.00 0.00 57 1012.8
20260903224004 78 234 7.0 15.0 0.00 0.00 0.00 58 1012.9
20260903223025 78 247 6.0 16.0 0.00 0.00 0.00 57 1013.0
20260903222004 79 247 6.0 13.0 0.00 0.00 0.00 58 1012.9
20260903221004 78 253 7.0 14.0 0.00 0.00 0.00 59 1013.0
20260903220004 78 252 7.0 15.0 0.00 0.00 0.00 59 1013.2
20260903215004 79 250 6.0 15.0 0.00 0.00 0.00 59 1013.2
20260903214004 79 258 6.0 14.0 0.00 0.00 0.00 60 1013.2
20260903213004 79 250 6.0 13.0 0.00 0.00 0.00 60 1013.3
20260903212025 79 251 7.0 15.0 0.00 0.00 0.00 61 1013.3
20260903211004 78 246 6.0 14.0 0.00 0.00 0.00 62 1013.4
20260903210004 79 265 6.0 14.0 0.00 0.00 0.00 61 1013.5
20260903205004 79 258 6.0 14.0 0.00 0.00 0.00 62 1013.5
20260903204004 80 260 6.0 14.0 0.00 0.00 0.00 61 1013.5
20260903203025 80 251 6.0 14.0 0.00 0.00 0.00 61 1013.7
20260903202004 79 253 5.0 12.0 0.00 0.00 0.00 61 1013.7
20260903201025 79 247 6.0 13.0 0.00 0.00 0.00 62 1013.8
20260903200025 79 246 5.0 13.0 0.00 0.00 0.00 62 1013.6
20260903195004 79 247 6.0 14.0 0.00 0.00 0.00 62 1013.8
20260903194004 79 246 5.0 15.0 0.00 0.00 0.00 62 1013.8
20260903191004 79 233 5.0 11.0 0.00 0.00 0.00 61 1014.1
20260903190004 79 239 5.0 12.0 0.00 0.00 0.00 61 1014.2
20260903185004 80 249 4.0 11.0 0.00 0.00 0.00 59 1014.3
20260903184004 80 271 3.0 10.0 0.00 0.00 0.00 59 1014.3
20260903183004 79 252 3.0 8.0 0.00 0.00 0.00 58 1014.3
20260903182003 79 262 4.0 9.0 0.00 0.00 0.00 57 1014.3
20260903181025 79 265 4.0 11.0 0.00 0.00 0.00 57 1014.3
20260903175004 78 250 3.0 8.0 0.00 0.00 0.00 58 1014.5
20260903173025 78 283 2.0 4.0 0.00 0.00 0.00 58 1014.5
20260903172003 78 256 2.0 7.0 0.00 0.00 0.00 60 1014.6
20260903171004 77 262 2.0 8.0 0.00 0.00 0.00 60 1014.6
20260903170004 77 259 2.0 5.0 0.00 0.00 0.00 61 1014.6
20260903165004 76 231 2.0 6.0 0.00 0.00 0.00 61 1014.5
20260903164004 77 186 1.0 5.0 0.00 0.00 0.00 61 1014.5
20260903163004 76 91 1.0 3.0 0.00 0.00 0.00 62 1014.5
20260903162004 76 92 1.0 4.0 0.00 0.00 0.00 62 1014.5
20260903160004 72 78 1.0 4.0 0.00 0.00 0.00 71 1014.5
20260903154004 64 65 1.0 3.0 0.00 0.00 0.00 83 1014.5
20260903153004 63 65 2.0 4.0 0.00 0.00 0.00 83 1014.5
20260903152004 62 65 2.0 5.0 0.00 0.00 0.00 83 1014.5
20260903151004 62 66 2.0 5.0 0.00 0.00 0.00 82 1014.6
20260903145004 60 62 4.0 8.0 0.00 0.00 0.00 83 1014.5
20260903144003 60 66 3.0 6.0 0.00 0.00 0.00 85 1014.4
20260903143004 60 63 3.0 7.0 0.00 0.00 0.00 86 1014.3
20260903142004 59 69 3.0 6.0 0.00 0.00 0.00 86 1014.3
20260903141003 59 66 3.0 6.0 0.00 0.00 0.00 86 1014.3
20260903140004 59 59 2.0 6.0 0.00 0.00 0.00 86 1014.3
20260903135003 59 60 3.0 6.0 0.00 0.00 0.00 86 1014.3
20260903134003 59 70 3.0 7.0 0.00 0.00 0.00 86 1014.3
20260903133025 59 66 3.0 6.0 0.00 0.00 0.00 85 1014.3
20260903132004 59 66 3.0 6.0 0.00 0.00 0.00 85 1014.3